Regional Weather Roundup
Issued by NWS Austin/San Antonio, TX

Home | Current Version | Previous Version | Text Only | Print | Product List | Glossary On
Versions: 1 2 3 4 5 6 7 8 9 10 11 12 13 14 15 16 17 18 19 20 21 22 23 24 25 26 27 28 29 30 31 32 33 34 35 36 37 38 39 40 41 42 43 44 45 46 47 48 49 50
511
ASUS44 KEWX 231610
RWREWX
SOUTH TEXAS REGIONAL WEATHER ROUNDUP
NATIONAL WEATHER SERVICE AUSTIN/SAN ANTONIO TX
1100 AM CDT SAT SEP 23 2017

NOTE: "FAIR" INDICATED FEW OR NO CLOUDS BELOW 12,000 FEET WITH NO
SIGNIFICANT WEATHER AND/OR OBSTRUCTIONS TO VISIBILITY.

* - THESE STATIONS ARE NOT NWS OR FAA STATIONS...AND ARE NOT SUBJECT
    TO NWS AND FAA QUALITY CONTROL.

TXZ171-172-183>190-231700-
TEXAS HILL COUNTRY AND EDWARDS PLATEAU

CITY           SKY/WX    TMP DP  RH WIND       PRES   REMARKS
JUNCTION       NOT AVBL
*LLANO         PTSUNNY   84  70  61 E7G17     29.99S
BURNET         NOT AVBL
*HORSESHOE BAY MOSUNNY   80  69  70 S6        29.96F
*KERRVILLE     CLOUDY    79  70  74 S13       29.97S
*FREDERICKSBRG MOSUNNY   79  64  60 S7        29.98S
*ROCKSPRINGS   NOT AVBL
*BOERNE STAGE  PTSUNNY   77  68  73 SE8       29.98S
*CASTROVILLE   MOSUNNY   84  68  57 SE9       29.95S
HONDO          NOT AVBL
*UVALDE        PTSUNNY   80  70  71 SE10      29.93S
DEL RIO        NOT AVBL
LAUGHLIN AFB   CLOUDY    81  69  67 S17       29.89S
CARRIZO SPRGS  PTSUNNY   81  72  74 SE10      29.89S
*EAGLE PASS      N/A    N/A N/A N/A MISG        N/A
$$

TXZ173-191>194-202-209-217>225-228-231700-
CENTRAL AND SOUTH CENTRAL TEXAS

CITY           SKY/WX    TMP DP  RH WIND       PRES   REMARKS
GEORGETOWN     CLOUDY    81  72  74 SE8       29.99S
AUSTIN/BERGSTM CLOUDY    81  73  78 E5        29.95F
AUSTIN/MABRY   MOSUNNY   81  72  74 SE5       29.97S
*AUSTIN/EXEC   CLOUDY    75  75 100 SE8       29.97S
*LAGO VISTA    PTSUNNY   81  71  71 S12       29.99R
SAN MARCOS     CLOUDY    81  73  76 SE6       29.96S
NEW BRAUNFELS  NOT AVBL
RANDOLPH AFB   PTSUNNY   81  75  83 E9        29.94F
PT SAN ANTONIO MOSUNNY   82  72  71 SE8       29.93S
SAN ANTONIO    PTSUNNY   80  72  76 SE7       29.95S
STINSON FIELD  NOT AVBL
*LA GRANGE     CLOUDY    82  76  82 SE3       29.94R
*GIDDINGS      MOSUNNY   80  71  74 SE7       29.96S
*GONZALES      PTSUNNY   83  79  86 SE7       29.94S HX  94
$$

TXZ163>164-176>182-195>201-210>213-226-227-235-231700-
SOUTHEAST TEXAS

CITY           SKY/WX    TMP DP  RH WIND       PRES   REMARKS
COLLEGE STN    NOT AVBL
*BRYAN         PTSUNNY   82  73  73 SE6       29.98R
*CALDWELL      PTSUNNY   81  74  78 S6        29.97S
*CROCKETT      MOSUNNY   84  73  70 CALM      30.00S HX  91
*BRENHAM       PTSUNNY   83  74  74 E7        29.96R HX  90
HUNTSVILLE     NOT AVBL
CONROE         MOSUNNY   84  73  70 SE6       29.96S HX  91
HOUSTON BUSH   MOSUNNY   86  74  67 SE10      29.95R HX  94
HOUSTON HOBBY  PTSUNNY   85  73  67 SE6       29.94R HX  91
*HOUSTON SW AP PTSUNNY   84  75  73 E7        29.94F HX  92
PEARLAND       NOT AVBL
HOUSTON HOOKS  NOT AVBL
ELLINGTON FLD  PTSUNNY   88  77  70 SE7       29.96R HX 100
SUGAR LAND     NOT AVBL
*HOUSTON EXEC  MOSUNNY   84  73  70 SE8       29.96R HX  91
*CLEVELAND MUN PTSUNNY   83  73  73 CALM      29.97S
*WHARTON       MOSUNNY   84  73  69 SE7       29.95R HX  90
*COLUMBUS      FAIR      82  74  75 SW6       29.95S
*EAGLE LAKE    PTSUNNY   84  76  76 SE7       29.94S HX  93
$$

TXZ214>216-236>238-231700-
THE UPPER TEXAS COAST

CITY           SKY/WX    TMP DP  RH WIND       PRES   REMARKS
*ORANGE        PTSUNNY   83  77  81 SE3       29.97R HX  91
PORT ARTHUR    NOT AVBL
GALVESTON      NOT AVBL
ANGLETON       NOT AVBL
*BAY CITY      PTSUNNY   86  74  69 E10       29.93S HX  94
PALACIOS       NOT AVBL
$$

TXZ229>234-239>247-231700-
TEXAS COASTAL BEND AND RIO GRANDE PLAINS

CITY           SKY/WX    TMP DP  RH WIND       PRES   REMARKS
VICTORIA       PTSUNNY   84  75  74 VRB6      29.92S HX  92
*BEEVILLE      SUNNY     87  68  52 SE8       29.91S HX  90
ROCKPORT       NOT AVBL
*PORT ARANSAS  NOT AVBL
*PORT LAVACA   MOSUNNY   83  74  74 E9        29.92S
*INGLESIDE     SUNNY     88  75  66 MISG      29.89R HX  97
CORPUS CHRISTI PTSUNNY   89  75  63 E14       29.89R HX  99
CORPUS NAS     PTSUNNY   87  77  72 SE13      29.89R HX  99
*ROBSTOWN      MOSUNNY   88  72  60 SE13      29.89S HX  94
ALICE          NOT AVBL
KINGSVILLE NAS SUNNY     91  75  59 SE14      29.88S HX 101
COTULLA        NOT AVBL
*FAITH RANCH   PTSUNNY   86  70  58 SE13G20   29.89F HX  90
LAREDO         NOT AVBL
$$

TXZ248>255-231700-
DEEP SOUTH TEXAS

CITY           SKY/WX    TMP DP  RH WIND       PRES   REMARKS
BROWNSVILLE    MOSUNNY   88  75  66 SE8       29.87S HX  97
PORT ISABEL    NOT AVBL
*SOUTH PADRE   NOT AVBL
HARLINGEN      MOSUNNY   90  73  58 SE10      29.86S HX  98
*HEBBRONVILLE  MOSUNNY   85  69  57 SE15G21   29.90S
MCALLEN        MOSUNNY   90  73  58 SE12      29.87S HX  98
*WESLACO       PTSUNNY   89  73  59 SE8       29.86S HX  96
FALFURRIAS     SUNNY    -38  32 100 S12       29.88S WCI -65
EDINBURG       MOSUNNY   90  72  55 E9        29.87S HX  97
*ZAPATA        PTSUNNY   87  69  54 SE10G18   29.87S HX  90
$$

TXZ213>215-236>238-242>244-246-247-251-254-255-231700-
CMAN STATIONS

STATION/POSITION TIME  TEMP    WIND        PRES    WAVE
                       AIR SEA DIR/SP/G            HT/PER
                 (UTC) (F)     (DEG/KT/KT) (MB)    (FT/S)
SABINE PASS      1536   83 84  130/  7/ 11 1015.6
SEA RIM ST PARK  1500   83     120/  7/ 10 1014.3
NORTH JETTY/GLS  1536      83  120/  8/ 10 1013.4
EAGLE POINT      1536   83 83  130/  9/ 11 1014.0
MORGANS POINT    1548   83 82  110/  6/  9 1013.9
PORT O`CONNOR    1542   82 83  110/ 11/ 14 1012.5
MALAQUITE BEACH  1548   83 84  110/  9/ 10 1011.7
BAFFIN BAY       1548   84 84  120/  9/ 12 1012.1
PORT ISABEL      1548   84 84  110/ 10/ 12 1011.6
$$




USA.gov is the U.S. government's official web portal to all federal, state and local government web resources and services.